Theta_e
308 307 306 305 304 304 304 304 304 304 302 302 302 302 302 301 301 301 301 301 301 302 302 302 302 302 303 303 303 303 304 303 305 305 303 303 303 304 302 302 302 303 303
306 305 304 304 304 304 304 303 303 302 301 301 301 300 300 300 300 300 300 301 301 301 301 301 301 301 301 302 301 301 302 302 302 303 302 302 302 302 302 301 302 301 302
304 304 304 304 304 303 302 301 300 300 300 300 299 300 300 300 299 299 299 299 299 299 299 299 300 300 300 300 299 298 298 299 299 300 301 301 301 301 301 301 301 300 301
304 304 304 303 303 302 300 300 299 299 299 299 299 299 299 298 298 297 297 297 298 298 298 299 298 299 299 298 296 296 295 295 295 295 296 297 298 300 300 300 301 300 300
303 303 303 302 301 300 299 298 298 298 298 298 298 298 298 298 296 295 295 295 296 296 297 297 297 296 294 293 293 294 294 293 293 293 294 294 295 297 299 300 300 300 299
303 302 301 300 299 298 298 298 298 298 298 297 298 298 298 297 295 292 291 293 293 293 293 292 292 292 293 291 291 290 290 291 292 293 293 294 294 294 295 296 298 298 297
302 300 299 298 298 297 297 297 297 298 298 297 297 297 297 297 295 291 290 291 292 292 291 291 291 291 290 290 289 289 289 288 289 290 291 292 293 293 294 294 295 296 296
300 299 298 297 297 297 297 297 297 297 297 297 296 294 293 293 292 289 289 291 291 291 290 290 290 290 290 288 287 287 287 288 289 289 290 291 292 292 292 293 294 294 293
298 298 297 296 296 296 297 297 296 295 294 294 293 293 293 292 291 289 289 291 291 291 290 290 289 289 288 287 286 286 287 288 289 290 290 291 291 291 291 291 291 291 292
297 296 296 296 296 296 295 294 293 293 293 293 293 293 292 292 292 290 289 290 290 289 289 289 288 288 287 286 286 287 287 288 288 289 290 291 291 291 291 291 290 290 291
296 296 295 294 295 295 294 293 293 293 293 293 292 293 292 291 290 288 288 288 288 288 288 289 289 287 287 287 287 287 287 287 288 289 289 290 290 290 290 289 289 289 290
295 295 294 294 293 294 294 293 292 292 292 292 292 291 291 290 289 288 287 287 287 288 288 288 288 287 287 287 287 287 287 287 288 288 289 289 289 288 288 288 288 289 289
294 294 293 293 292 293 292 292 292 291 291 290 290 291 291 290 290 289 288 287 287 287 288 288 287 287 288 288 289 288 288 288 288 288 289 289 288 287 286 287 287 287 288
293 292 292 291 291 290 290 290 291 290 290 290 290 290 289 289 290 288 287 287 287 287 287 287 287 288 289 289 289 289 288 288 288 287 288 287 287 287 287 287 287 287 287
291 290 289 288 289 289 289 289 289 289 289 289 289 288 288 288 288 285 285 286 285 285 284 287 288 288 289 288 288 288 288 288 288 287 287 287 288 287 287 287 287 287 288
289 289 289 288 286 287 288 285 284 285 283 283 283 282 283 284 284 283 283 285 285 284 285 286 287 287 288 288 288 288 288 288 287 286 287 287 287 287 287 286 287 288 287
289 289 288 288 287 286 286 289 290 285 284 284 284 283 282 281 281 281 283 284 285 285 286 286 286 286 287 287 287 287 288 287 286 287 286 286 286 286 287 287 287 287 287
289 288 288 288 288 288 288 288 287 288 289 288 286 284 284 283 282 282 282 285 286 286 286 286 286 286 286 287 287 287 287 287 287 286 286 286 286 286 286 287 287 287 286
287 288 288 289 289 288 288 287 287 287 287 287 286 286 285 283 283 283 284 285 285 286 286 286 286 285 286 286 287 286 286 286 285 285 286 286 285 285 286 286 286 286 286
286 288 287 288 288 287 288 288 288 287 287 287 287 287 286 284 285 285 285 284 284 285 285 285 285 285 285 286 286 286 286 286 286 285 285 285 284 285 285 285 286 286 285
288 288 286 287 288 288 288 288 288 288 288 287 287 286 284 282 284 285 285 284 284 284 284 285 285 285 285 286 286 286 286 286 286 285 285 285 284 285 285 285 285 284 284
289 289 288 287 288 288 288 288 288 288 287 287 286 286 284 282 284 285 284 284 283 283 283 284 284 285 285 285 285 285 286 285 285 285 285 284 284 284 284 284 284 284 284
287 287 287 287 288 288 288 287 288 288 287 287 286 286 285 285 285 284 284 283 283 282 282 282 283 284 284 285 285 285 285 286 285 285 284 284 284 283 283 284 284 283 283
287 287 288 288 288 288 288 288 287 287 286 286 285 285 285 284 283 283 282 282 282 281 281 281 281 282 283 284 285 285 285 285 285 284 284 284 283 283 283 283 283 283 282
289 287 287 287 287 286 286 285 285 285 285 285 284 284 284 283 283 282 282 281 281 280 280 280 280 281 282 283 284 284 284 284 284 284 283 283 283 282 282 282 282 282 281
286 286 285 285 284 284 283 283 283 283 283 284 283 283 283 282 282 281 281 281 280 280 280 279 279 279 279 281 283 284 284 284 284 283 283 282 282 282 281 282 281 281 280
Wind_Speed
25 23 22 20 17 15 12 9 7 4 1 1 4 6 7 8 9 10 11 12 12 14 14 15 16 17 19 20 20 20 22 25 17 34 30 31 26 24 29 26 26 26 26
24 22 20 19 16 13 11 8 5 3 1 3 7 7 6 6 7 8 9 9 11 13 15 16 17 17 19 19 19 21 23 26 25 30 31 32 29 27 24 26 24 24 24
25 23 20 18 15 12 10 6 4 3 4 6 5 5 4 4 5 7 9 10 12 14 15 17 18 18 20 20 20 21 24 25 24 27 33 30 30 24 24 24 24 22 21
25 23 21 18 15 11 8 6 4 4 6 5 3 3 3 4 5 6 8 11 13 15 16 17 18 19 20 20 23 23 22 23 23 25 28 28 27 27 24 23 21 21 19
26 23 20 17 13 10 8 6 5 5 4 4 3 2 1 3 3 8 10 13 15 17 16 17 17 20 24 23 21 23 25 24 23 24 25 24 24 20 21 22 22 23 19
26 23 19 16 13 10 8 7 6 4 3 3 2 1 2 4 7 10 12 15 15 16 17 18 18 20 21 23 23 24 24 27 30 26 26 23 24 23 21 23 21 16 5
25 21 18 16 13 10 8 7 5 3 2 1 1 3 4 5 10 12 13 16 16 15 17 19 20 19 23 24 24 26 24 27 31 32 31 29 28 25 25 24 23 18 17
24 20 17 15 13 11 9 6 4 2 1 1 2 3 6 7 12 12 15 14 15 15 17 18 21 23 23 25 28 26 28 27 28 29 30 32 31 30 26 25 21 19 21
23 19 17 14 13 11 9 6 4 3 2 2 3 5 7 9 9 11 14 15 16 17 18 20 21 24 24 29 29 28 29 31 29 29 29 28 27 25 26 25 18 12 10
22 19 16 14 13 11 9 7 6 4 4 2 3 4 6 7 9 12 13 15 18 19 20 22 23 23 28 30 29 27 27 28 29 30 29 26 23 21 20 19 20 14 12
21 18 16 13 12 11 9 7 5 5 2 0 2 4 5 6 9 12 14 16 18 22 22 23 22 26 30 31 27 26 26 29 30 27 26 23 21 18 16 15 16 18 13
21 18 17 14 11 11 10 8 7 5 3 2 3 5 6 8 10 11 14 17 20 22 23 23 25 30 28 25 23 21 23 22 19 18 17 16 15 14 13 13 14 13 14
22 19 17 14 12 12 11 9 6 4 3 3 3 4 7 8 9 12 17 19 19 21 21 27 30 28 25 21 19 21 17 15 16 15 13 13 11 12 10 6 5 3 2
22 21 18 17 15 12 11 8 6 5 4 4 4 5 7 8 9 11 16 17 19 18 22 25 22 22 19 20 18 16 13 14 13 14 13 12 10 8 6 3 1 5 9
22 21 18 19 16 13 8 6 6 7 6 5 5 5 7 9 9 13 17 18 20 20 23 18 17 18 19 17 16 15 13 13 13 12 11 10 8 6 5 3 1 1 8
23 19 18 15 15 12 8 6 9 8 6 5 5 6 8 9 12 15 17 16 18 18 16 14 16 17 17 18 16 15 13 11 11 10 9 8 7 5 4 3 4 8 10
22 20 17 14 12 11 10 9 8 8 6 5 5 6 7 9 12 15 15 16 16 15 12 13 14 16 18 17 16 15 13 11 10 8 7 6 5 3 3 4 7 10 11
19 19 16 13 12 11 10 9 8 7 6 7 9 10 10 12 15 14 14 14 14 13 12 14 16 17 17 17 17 14 12 11 8 7 6 5 4 2 2 5 7 10 12
21 16 14 11 11 11 10 10 10 9 8 9 11 11 11 13 14 13 12 10 13 15 15 15 16 16 17 17 16 15 13 10 8 6 4 3 2 1 5 6 9 11 13
16 12 12 10 10 11 12 12 11 11 11 12 12 12 10 10 9 11 12 13 12 14 16 17 18 17 17 18 17 15 12 10 7 4 3 1 0 3 7 9 10 11 13
11 10 14 12 13 13 13 13 13 13 14 14 15 14 13 9 9 10 11 12 12 13 17 18 20 18 17 17 16 13 10 10 7 5 3 2 3 5 8 10 12 13 17
10 11 12 14 14 15 15 14 15 16 17 18 17 14 15 11 11 11 12 13 15 13 14 17 18 19 18 17 16 15 12 11 9 6 5 5 5 7 9 11 13 14 15
13 13 13 14 15 15 16 17 17 18 19 19 18 16 14 14 13 13 13 13 14 15 16 16 18 19 19 17 16 14 13 10 10 9 9 8 8 9 11 13 14 14 14
13 14 14 14 13 15 16 17 18 18 19 17 16 17 16 15 14 15 15 14 14 17 16 17 18 18 20 18 17 15 14 13 10 11 12 11 10 12 12 13 14 14 16
9 8 9 10 13 14 15 15 15 16 16 15 17 17 15 15 16 16 15 15 15 16 15 16 18 17 19 20 19 18 16 15 13 12 14 14 14 15 15 15 17 17 17
7 8 9 10 11 11 12 12 13 13 13 14 14 15 15 15 15 15 15 15 15 15 16 18 17 19 21 21 19 18 18 17 15 15 15 16 17 17 17 17 19 19 19
Wind_Direction
161 158 153 152 150 147 144 138 136 138 135 297 276 270 284 296 301 296 292 295 298 301 300 301 300 301 299 300 299 296 292 289 284 292 290 291 296 297 297 297 301 302 299
162 155 149 147 145 141 140 138 144 153 231 255 255 270 286 298 302 301 299 309 310 306 304 302 300 299 298 296 297 296 293 293 296 293 296 296 292 293 292 296 296 299 296
160 153 149 148 147 145 146 149 158 188 222 242 255 273 293 297 304 306 316 316 308 304 302 299 298 300 298 299 299 298 293 293 292 288 291 292 288 289 288 290 292 297 295
160 156 153 152 150 149 153 163 178 195 221 232 250 268 273 302 314 328 332 324 312 301 297 298 300 299 299 301 301 296 297 296 297 292 289 292 292 290 286 284 290 294 300
160 157 154 151 149 151 159 168 180 199 214 228 235 234 302 320 333 347 336 317 303 301 301 299 299 295 296 300 300 298 299 295 289 287 285 285 284 283 282 284 282 292 297
159 156 152 149 152 158 158 169 177 188 192 200 191 312 313 329 310 329 324 314 307 302 304 305 305 306 303 302 300 300 300 300 293 288 288 280 282 276 280 285 280 294 292
155 151 150 153 152 156 164 169 158 156 167 176 269 299 311 320 306 319 319 316 310 306 306 307 305 304 305 304 305 306 302 299 289 289 284 278 277 277 280 277 281 274 272
152 152 153 153 154 162 166 146 149 173 207 261 279 316 321 312 308 323 328 323 315 309 306 304 303 305 309 313 310 306 304 298 291 291 282 282 278 278 276 276 278 280 285
152 153 153 156 161 164 150 154 163 174 211 244 292 309 310 307 306 326 333 324 317 312 309 307 306 306 308 314 312 305 303 299 300 301 303 300 296 286 276 277 271 275 285
154 152 156 160 163 156 158 171 183 194 230 273 312 316 309 307 314 319 331 323 313 312 308 310 311 308 312 315 309 302 299 302 308 309 311 309 307 298 289 278 273 262 266
149 151 153 157 158 157 170 179 185 203 199 237 297 294 295 305 316 320 327 321 315 311 309 315 319 318 319 315 310 299 293 306 308 308 306 307 310 309 302 291 276 264 256
148 150 153 156 153 169 169 167 173 163 174 232 286 292 300 310 308 312 323 322 319 311 312 313 317 324 325 319 311 303 307 310 308 307 308 309 314 313 308 301 295 286 268
149 152 150 150 157 162 164 162 151 161 188 202 254 294 305 309 308 312 318 315 316 314 310 312 319 324 322 318 311 313 316 312 316 313 315 318 324 314 312 315 331 341 7
147 149 146 153 158 162 160 157 161 172 190 216 244 272 292 310 315 317 313 312 320 321 318 318 325 323 321 320 319 320 314 317 316 315 318 319 319 319 318 320 29 92 86
146 149 150 159 161 159 153 156 174 197 202 216 243 272 288 295 300 312 319 322 326 321 324 326 331 333 332 330 326 323 318 324 325 326 325 328 333 338 352 9 263 104 103
150 153 157 160 164 155 154 183 203 206 212 235 250 287 305 291 300 314 319 327 326 328 327 329 328 330 329 328 325 324 323 328 331 330 333 338 342 351 7 36 103 103 108
153 156 158 158 159 168 185 200 213 227 239 258 287 309 312 313 321 334 345 334 328 331 325 326 324 323 322 323 323 323 321 328 326 329 336 342 348 5 15 77 101 107 105
152 156 159 165 175 186 199 207 217 228 242 266 279 294 304 318 332 345 351 340 329 330 321 322 321 322 319 319 322 322 321 322 325 329 335 345 345 0 84 100 103 109 106
158 163 168 176 190 201 209 217 223 230 242 257 277 287 292 309 326 340 346 330 322 317 326 322 316 317 315 314 314 317 314 312 317 317 327 340 352 63 103 104 105 106 111
171 178 185 195 205 215 221 227 229 233 240 246 255 260 269 298 311 318 320 317 318 312 313 322 318 311 313 311 311 312 310 306 303 297 300 311 58 127 123 121 118 114 109
185 195 207 215 225 230 233 237 242 242 244 248 251 254 254 270 284 291 295 297 308 310 315 314 322 310 307 310 307 301 297 297 290 274 253 190 153 136 127 121 120 120 119
202 210 215 223 232 237 240 246 250 250 250 250 253 252 256 263 269 276 281 287 301 305 307 317 314 314 297 301 299 296 290 286 277 249 221 190 163 154 143 134 131 129 128
220 226 232 238 243 249 250 250 254 252 253 251 251 255 253 259 265 272 277 284 297 301 306 309 316 315 309 295 294 284 276 269 265 245 217 193 176 164 159 147 144 140 139
225 231 238 247 251 254 255 255 255 257 254 252 246 246 250 255 261 269 275 284 291 300 303 305 307 313 315 298 289 282 267 260 250 241 219 204 185 172 164 156 152 147 144
222 231 247 254 258 259 259 261 261 261 257 248 247 249 252 255 259 264 271 279 286 293 299 303 308 307 311 309 290 280 264 258 246 234 219 207 194 180 169 162 156 150 148
244 255 260 260 262 262 262 262 263 263 261 257 258 258 256 258 261 267 271 276 280 286 292 301 303 308 308 313 294 277 265 252 242 232 216 202 190 178 170 164 162 157 153